Time,TemperatureF,DewpointF,PressureIn,WindDirection,WindDirectionDegrees,WindSpeedMPH,WindSpeedGustMPH,Humidity,HourlyPrecipIn,Conditions,Clouds,dailyrainin,SolarRadiationWatts/m^2,SoftwareType,DateUTC
2013-02-01 00:00:00,27.8,10.2,29.71,NW,318,1.0,8.0,47,0.00,,,0.00,0,HR-IXPWINDi_r2_v1.2.,2013-02-01 05:00:00,
2013-02-01 00:05:00,28.2,12.9,29.71,SSE,160,2.0,8.0,52,0.00,,,0.00,0,HR-IXPWINDi_r2_v1.2.,2013-02-01 05:05:00,
2013-02-01 00:10:00,27.9,9.8,29.71,East,99,3.0,5.0,46,0.00,,,0.00,0,HR-IXPWINDi_r2_v1.2.,2013-02-01 05:10:00,
2013-02-01 00:16:00,27.9,10.3,29.71,SSE,148,0.0,6.0,47,0.00,,,0.00,0,HR-IXPWINDi_r2_v1.2.,2013-02-01 05:16:00,
2013-02-01 00:21:00,27.8,10.2,29.72,North,4,2.0,8.0,47,0.00,,,0.00,0,HR-IXPWINDi_r2_v1.2.,2013-02-01 05:21:00,
2013-02-01 00:26:00,27.5,10.9,29.72,ESE,119,0.0,8.0,49,0.00,,,0.00,0,HR-IXPWINDi_r2_v1.2.,2013-02-01 05:26:00,
2013-02-01 00:31:00,27.5,9.5,29.72,SSE,165,1.0,13.0,46,0.00,,,0.00,0,HR-IXPWINDi_r2_v1.2.,2013-02-01 05:31:00,
2013-02-01 00:37:00,27.5,9.5,29.72,NE,49,4.0,13.0,46,0.00,,,0.00,0,HR-IXPWINDi_r2_v1.2.,2013-02-01 05:37:00,
2013-02-01 00:42:00,27.5,10.4,29.72,SE,134,3.0,8.0,48,0.00,,,0.00,0,HR-IXPWINDi_r2_v1.2.,2013-02-01 05:42:00,
2013-02-01 00:47:00,27.3,9.8,29.72,ESE,114,0.0,8.0,47,0.00,,,0.00,0,HR-IXPWINDi_r2_v1.2.,2013-02-01 05:47:00,
2013-02-01 00:52:00,27.5,9.5,29.72,East,88,1.0,6.0,46,0.00,,,0.00,0,HR-IXPWINDi_r2_v1.2.,2013-02-01 05:52:00,
2013-02-01 00:57:00,27.5,11.3,29.72,SSW,195,1.0,8.0,50,0.00,,,0.00,0,HR-IXPWINDi_r2_v1.2.,2013-02-01 05:57:00,
2013-02-01 01:03:00,27.5,9.5,29.72,WNW,301,0.0,16.0,46,0.00,,,0.00,0,HR-IXPWINDi_r2_v1.2.,2013-02-01 06:03:00,
2013-02-01 01:08:00,27.5,10.4,29.73,ESE,102,3.0,16.0,48,0.00,,,0.00,0,HR-IXPWINDi_r2_v1.2.,2013-02-01 06:08:00,
2013-02-01 01:13:00,27.2,9.7,29.73,ENE,59,0.0,7.0,47,0.00,,,0.00,0,HR-IXPWINDi_r2_v1.2.,2013-02-01 06:13:00,
2013-02-01 01:18:00,27.2,10.1,29.73,West,281,1.0,8.0,48,0.00,,,0.00,0,HR-IXPWINDi_r2_v1.2.,2013-02-01 06:18:00,
2013-02-01 01:23:00,27.2,10.1,29.74,North,353,2.0,8.0,48,0.00,,,0.00,0,HR-IXPWINDi_r2_v1.2.,2013-02-01 06:23:00,
2013-02-01 01:29:00,27.2,10.1,29.74,SE,126,1.0,6.0,48,0.00,,,0.00,0,HR-IXPWINDi_r2_v1.2.,2013-02-01 06:29:00,
2013-02-01 01:34:00,27.3,10.2,29.74,SSE,148,0.0,6.0,48,0.00,,,0.00,0,HR-IXPWINDi_r2_v1.2.,2013-02-01 06:34:00,
2013-02-01 01:39:00,27.2,10.6,29.74,SSE,147,0.0,6.0,49,0.00,,,0.00,0,HR-IXPWINDi_r2_v1.2.,2013-02-01 06:39:00,
2013-02-01 01:44:00,27.3,10.7,29.74,ENE,69,0.0,3.0,49,0.00,,,0.00,0,HR-IXPWINDi_r2_v1.2.,2013-02-01 06:44:00,
2013-02-01 01:49:00,27.2,10.6,29.74,East,85,0.0,5.0,49,0.00,,,0.00,0,HR-IXPWINDi_r2_v1.2.,2013-02-01 06:49:00,
2013-02-01 01:54:00,27.2,10.6,29.75,East,85,0.0,5.0,49,0.00,,,0.00,0,HR-IXPWINDi_r2_v1.2.,2013-02-01 06:54:00,
2013-02-01 02:00:00,27.0,10.4,29.75,East,89,0.0,5.0,49,0.00,,,0.00,0,HR-IXPWINDi_r2_v1.2.,2013-02-01 07:00:00,
2013-02-01 02:05:00,27.0,10.9,29.75,East,89,0.0,5.0,50,0.00,,,0.00,0,HR-IXPWINDi_r2_v1.2.,2013-02-01 07:05:00,
2013-02-01 02:10:00,27.3,12.0,29.74,SE,124,0.0,4.0,52,0.00,,,0.00,0,HR-IXPWINDi_r2_v1.2.,2013-02-01 07:10:00,
2013-02-01 02:15:00,27.2,12.4,29.74,SE,128,0.0,4.0,53,0.00,,,0.00,0,HR-IXPWINDi_r2_v1.2.,2013-02-01 07:15:00,
2013-02-01 02:20:00,27.0,11.3,29.74,SE,128,0.0,3.0,51,0.00,,,0.00,0,HR-IXPWINDi_r2_v1.2.,2013-02-01 07:20:00,
2013-02-01 02:26:00,26.9,11.2,29.74,North,0,2.0,13.0,51,0.00,,,0.00,0,HR-IXPWINDi_r2_v1.2.,2013-02-01 07:26:00,
2013-02-01 02:31:00,26.9,11.2,29.74,NE,40,1.0,13.0,51,0.00,,,0.00,0,HR-IXPWINDi_r2_v1.2.,2013-02-01 07:31:00,
2013-02-01 02:36:00,26.7,13.1,29.74,NE,41,1.0,3.0,56,0.00,,,0.00,0,HR-IXPWINDi_r2_v1.2.,2013-02-01 07:36:00,
2013-02-01 02:41:00,26.9,11.7,29.74,SE,136,0.0,3.0,52,0.00,,,0.00,0,HR-IXPWINDi_r2_v1.2.,2013-02-01 07:41:00,
2013-02-01 02:46:00,26.7,11.5,29.74,SE,136,0.0,3.0,52,0.00,,,0.00,0,HR-IXPWINDi_r2_v1.2.,2013-02-01 07:46:00,
2013-02-01 02:52:00,26.6,11.4,29.75,NE,54,1.0,3.0,52,0.00,,,0.00,0,HR-IXPWINDi_r2_v1.2.,2013-02-01 07:52:00,
2013-02-01 02:57:00,26.6,11.4,29.75,East,88,2.0,3.0,52,0.00,,,0.00,0,HR-IXPWINDi_r2_v1.2.,2013-02-01 07:57:00,
2013-02-01 03:02:00,27.0,11.8,29.75,SSE,158,0.0,4.0,52,0.00,,,0.00,0,HR-IXPWINDi_r2_v1.2.,2013-02-01 08:02:00,
2013-02-01 03:07:00,27.0,13.4,29.74,SSE,157,1.0,4.0,56,0.00,,,0.00,0,HR-IXPWINDi_r2_v1.2.,2013-02-01 08:07:00,
2013-02-01 03:13:00,26.7,11.9,29.74,SSE,157,2.0,5.0,53,0.00,,,0.00,0,HR-IXPWINDi_r2_v1.2.,2013-02-01 08:13:00,
2013-02-01 03:18:00,26.6,12.2,29.74,SE,140,0.0,5.0,54,0.00,,,0.00,0,HR-IXPWINDi_r2_v1.2.,2013-02-01 08:18:00,
2013-02-01 03:23:00,26.6,12.2,29.74,North,0,0.0,5.0,54,0.00,,,0.00,0,HR-IXPWINDi_r2_v1.2.,2013-02-01 08:23:00,
2013-02-01 03:28:00,26.3,12.0,29.74,North,0,0.0,4.0,54,0.00,,,0.00,0,HR-IXPWINDi_r2_v1.2.,2013-02-01 08:28:00,
2013-02-01 03:34:00,26.4,12.5,29.74,North,0,0.0,3.0,55,0.00,,,0.00,0,HR-IXPWINDi_r2_v1.2.,2013-02-01 08:34:00,
2013-02-01 03:39:00,26.6,12.6,29.74,North,0,1.0,3.0,55,0.00,,,0.00,0,HR-IXPWINDi_r2_v1.2.,2013-02-01 08:39:00,
2013-02-01 03:44:00,26.6,13.0,29.74,South,186,0.0,4.0,56,0.00,,,0.00,0,HR-IXPWINDi_r2_v1.2.,2013-02-01 08:44:00,
2013-02-01 03:49:00,26.6,12.6,29.74,South,186,0.0,4.0,55,0.00,,,0.00,0,HR-IXPWINDi_r2_v1.2.,2013-02-01 08:49:00,
2013-02-01 03:54:00,26.4,12.9,29.73,South,186,0.0,2.0,56,0.00,,,0.00,0,HR-IXPWINDi_r2_v1.2.,2013-02-01 08:54:00,
2013-02-01 04:00:00,26.4,13.3,29.73,South,182,2.0,3.0,57,0.00,,,0.00,0,HR-IXPWINDi_r2_v1.2.,2013-02-01 09:00:00,
2013-02-01 04:05:00,26.4,13.3,29.73,South,181,0.0,3.0,57,0.00,,,0.00,0,HR-IXPWINDi_r2_v1.2.,2013-02-01 09:05:00,
2013-02-01 04:10:00,26.6,14.6,29.74,SSW,199,0.0,6.0,60,0.00,,,0.00,0,HR-IXPWINDi_r2_v1.2.,2013-02-01 09:10:00,
2013-02-01 04:15:00,26.4,13.3,29.74,SSW,193,0.0,6.0,57,0.00,,,0.00,0,HR-IXPWINDi_r2_v1.2.,2013-02-01 09:15:00,
2013-02-01 04:20:00,26.3,13.6,29.74,SSW,193,1.0,2.0,58,0.00,,,0.00,0,HR-IXPWINDi_r2_v1.2.,2013-02-01 09:20:00,
2013-02-01 04:26:00,26.1,13.4,29.74,SSW,193,0.0,2.0,58,0.00,,,0.00,0,HR-IXPWINDi_r2_v1.2.,2013-02-01 09:26:00,
2013-02-01 04:31:00,26.1,13.4,29.74,SSW,193,0.0,2.0,58,0.00,,,0.00,0,HR-IXPWINDi_r2_v1.2.,2013-02-01 09:31:00,
2013-02-01 04:36:00,26.0,14.0,29.74,South,179,0.0,3.0,60,0.00,,,0.00,0,HR-IXPWINDi_r2_v1.2.,2013-02-01 09:36:00,
2013-02-01 04:41:00,26.3,15.1,29.74,South,171,3.0,4.0,62,0.00,,,0.00,0,HR-IXPWINDi_r2_v1.2.,2013-02-01 09:41:00,
2013-02-01 04:47:00,26.6,14.2,29.74,South,172,0.0,4.0,59,0.00,,,0.00,0,HR-IXPWINDi_r2_v1.2.,2013-02-01 09:47:00,
2013-02-01 04:52:00,26.3,15.1,29.75,South,172,0.0,4.0,62,0.00,,,0.00,0,HR-IXPWINDi_r2_v1.2.,2013-02-01 09:52:00,
2013-02-01 04:57:00,26.0,14.4,29.75,South,171,0.0,2.0,61,0.00,,,0.00,0,HR-IXPWINDi_r2_v1.2.,2013-02-01 09:57:00,
2013-02-01 05:02:00,26.0,14.0,29.75,South,172,0.0,3.0,60,0.00,,,0.00,0,HR-IXPWINDi_r2_v1.2.,2013-02-01 10:02:00,
2013-02-01 05:08:00,26.9,16.7,29.75,SSE,150,0.0,7.0,65,0.00,,,0.00,0,HR-IXPWINDi_r2_v1.2.,2013-02-01 10:08:00,
2013-02-01 05:13:00,27.0,16.5,29.75,SSW,203,2.0,7.0,64,0.00,,,0.00,0,HR-IXPWINDi_r2_v1.2.,2013-02-01 10:13:00,
2013-02-01 05:18:00,26.9,14.5,29.75,SSE,165,3.0,6.0,59,0.00,,,0.00,0,HR-IXPWINDi_r2_v1.2.,2013-02-01 10:18:00,
2013-02-01 05:24:00,26.7,14.7,29.76,SSE,165,0.0,3.0,60,0.00,,,0.00,0,HR-IXPWINDi_r2_v1.2.,2013-02-01 10:24:00,
2013-02-01 05:29:00,26.4,14.0,29.76,SSE,161,0.0,6.0,59,0.00,,,0.00,0,HR-IXPWINDi_r2_v1.2.,2013-02-01 10:29:00,
2013-02-01 05:34:00,26.3,14.7,29.76,ESE,121,1.0,6.0,61,0.00,,,0.00,0,HR-IXPWINDi_r2_v1.2.,2013-02-01 10:34:00,
2013-02-01 05:39:00,26.1,13.8,29.76,ESE,121,2.0,6.0,59,0.00,,,0.00,0,HR-IXPWINDi_r2_v1.2.,2013-02-01 10:39:00,
2013-02-01 05:44:00,26.3,13.6,29.76,SE,143,0.0,5.0,58,0.00,,,0.00,0,HR-IXPWINDi_r2_v1.2.,2013-02-01 10:44:00,
2013-02-01 05:49:00,26.0,13.7,29.76,SE,143,0.0,5.0,59,0.00,,,0.00,0,HR-IXPWINDi_r2_v1.2.,2013-02-01 10:49:00,
2013-02-01 05:55:00,26.0,13.7,29.77,ESE,120,1.0,3.0,59,0.00,,,0.00,0,HR-IXPWINDi_r2_v1.2.,2013-02-01 10:55:00,
2013-02-01 06:00:00,26.1,13.4,29.77,SE,130,0.0,3.0,58,0.00,,,0.00,0,HR-IXPWINDi_r2_v1.2.,2013-02-01 11:00:00,
2013-02-01 06:05:00,26.1,13.4,29.77,SE,130,1.0,3.0,58,0.00,,,0.00,0,HR-IXPWINDi_r2_v1.2.,2013-02-01 11:05:00,
2013-02-01 06:11:00,26.1,13.4,29.78,SSE,158,0.0,3.0,58,0.00,,,0.00,0,HR-IXPWINDi_r2_v1.2.,2013-02-01 11:11:00,
2013-02-01 06:16:00,26.0,13.7,29.78,SSE,158,0.0,3.0,59,0.00,,,0.00,0,HR-IXPWINDi_r2_v1.2.,2013-02-01 11:16:00,
2013-02-01 06:21:00,25.8,13.9,29.78,SSE,158,0.0,2.0,60,0.00,,,0.00,0,HR-IXPWINDi_r2_v1.2.,2013-02-01 11:21:00,
2013-02-01 06:26:00,25.7,13.8,29.78,SSE,158,0.0,2.0,60,0.00,,,0.00,0,HR-IXPWINDi_r2_v1.2.,2013-02-01 11:26:00,
2013-02-01 06:31:00,25.4,13.5,29.78,SSE,158,0.0,2.0,60,0.00,,,0.00,0,HR-IXPWINDi_r2_v1.2.,2013-02-01 11:31:00,
2013-02-01 06:37:00,25.6,14.4,29.79,SSE,160,0.0,3.0,62,0.00,,,0.00,0,HR-IXPWINDi_r2_v1.2.,2013-02-01 11:37:00,
2013-02-01 06:42:00,25.6,14.0,29.79,SSE,160,0.0,3.0,61,0.00,,,0.00,0,HR-IXPWINDi_r2_v1.2.,2013-02-01 11:42:00,
2013-02-01 06:47:00,25.6,13.3,29.79,SSE,160,0.0,3.0,59,0.00,,,0.00,0,HR-IXPWINDi_r2_v1.2.,2013-02-01 11:47:00,
2013-02-01 06:52:00,25.8,13.9,29.80,SSE,154,0.0,8.0,60,0.00,,,0.00,0,HR-IXPWINDi_r2_v1.2.,2013-02-01 11:52:00,
2013-02-01 06:57:00,26.0,13.7,29.80,South,169,0.0,8.0,59,0.00,,,0.00,0,HR-IXPWINDi_r2_v1.2.,2013-02-01 11:57:00,
2013-02-01 07:02:00,25.8,13.1,29.80,South,179,3.0,7.0,58,0.00,,,0.00,0,HR-IXPWINDi_r2_v1.2.,2013-02-01 12:02:00,
2013-02-01 07:08:00,26.0,12.5,29.80,WSW,248,0.0,7.0,56,0.00,,,0.00,0,HR-IXPWINDi_r2_v1.2.,2013-02-01 12:08:00,
2013-02-01 07:13:00,25.8,12.7,29.80,NNE,31,2.0,5.0,57,0.00,,,0.00,0,HR-IXPWINDi_r2_v1.2.,2013-02-01 12:13:00,
2013-02-01 07:18:00,25.7,12.6,29.80,ENE,68,0.0,5.0,57,0.00,,,0.00,0,HR-IXPWINDi_r2_v1.2.,2013-02-01 12:18:00,
2013-02-01 07:23:00,25.7,12.6,29.80,ENE,68,0.0,5.0,57,0.00,,,0.00,0,HR-IXPWINDi_r2_v1.2.,2013-02-01 12:23:00,
2013-02-01 07:28:00,25.7,12.2,29.80,NW,318,0.0,6.0,56,0.00,,,0.00,0,HR-IXPWINDi_r2_v1.2.,2013-02-01 12:28:00,
2013-02-01 07:33:00,25.7,12.6,29.80,ESE,120,0.0,6.0,57,0.00,,,0.00,7,HR-IXPWINDi_r2_v1.2.,2013-02-01 12:33:00,
2013-02-01 07:39:00,25.6,12.5,29.81,ENE,69,3.0,5.0,57,0.00,,,0.00,9,HR-IXPWINDi_r2_v1.2.,2013-02-01 12:39:00,
2013-02-01 07:44:00,25.8,12.3,29.81,East,95,0.0,5.0,56,0.00,,,0.00,9,HR-IXPWINDi_r2_v1.2.,2013-02-01 12:44:00,
2013-02-01 07:49:00,25.8,11.9,29.81,East,92,2.0,5.0,55,0.00,,,0.00,9,HR-IXPWINDi_r2_v1.2.,2013-02-01 12:49:00,
2013-02-01 07:55:00,25.8,11.9,29.82,East,93,0.0,3.0,55,0.00,,,0.00,9,HR-IXPWINDi_r2_v1.2.,2013-02-01 12:55:00,
2013-02-01 08:00:00,25.8,11.9,29.82,WSW,251,1.0,6.0,55,0.00,,,0.00,12,HR-IXPWINDi_r2_v1.2.,2013-02-01 13:00:00,
2013-02-01 08:05:00,26.0,12.5,29.82,East,96,0.0,6.0,56,0.00,,,0.00,30,HR-IXPWINDi_r2_v1.2.,2013-02-01 13:05:00,
2013-02-01 08:10:00,26.1,11.8,29.82,East,96,0.0,5.0,54,0.00,,,0.00,46,HR-IXPWINDi_r2_v1.2.,2013-02-01 13:10:00,
2013-02-01 08:15:00,26.3,12.4,29.82,East,95,0.0,4.0,55,0.00,,,0.00,49,HR-IXPWINDi_r2_v1.2.,2013-02-01 13:15:00,
2013-02-01 08:21:00,26.7,12.7,29.81,ESE,102,0.0,7.0,55,0.00,,,0.00,55,HR-IXPWINDi_r2_v1.2.,2013-02-01 13:21:00,
2013-02-01 08:26:00,27.0,12.2,29.81,ESE,119,6.0,7.0,53,0.00,,,0.00,44,HR-IXPWINDi_r2_v1.2.,2013-02-01 13:26:00,
2013-02-01 08:31:00,27.0,11.8,29.81,SSE,168,6.0,7.0,52,0.00,,,0.00,65,HR-IXPWINDi_r2_v1.2.,2013-02-01 13:31:00,
2013-02-01 08:36:00,27.0,11.3,29.80,NNE,30,0.0,8.0,51,0.00,,,0.00,81,HR-IXPWINDi_r2_v1.2.,2013-02-01 13:36:00,
2013-02-01 08:41:00,27.2,11.5,29.80,NE,41,2.0,8.0,51,0.00,,,0.00,88,HR-IXPWINDi_r2_v1.2.,2013-02-01 13:41:00,
2013-02-01 08:47:00,27.0,10.9,29.80,NNE,21,2.0,8.0,50,0.00,,,0.00,81,HR-IXPWINDi_r2_v1.2.,2013-02-01 13:47:00,
2013-02-01 08:52:00,27.0,11.3,29.81,NNE,27,0.0,8.0,51,0.00,,,0.00,77,HR-IXPWINDi_r2_v1.2.,2013-02-01 13:52:00,
2013-02-01 08:57:00,27.2,11.5,29.81,ESE,107,1.0,5.0,51,0.00,,,0.00,70,HR-IXPWINDi_r2_v1.2.,2013-02-01 13:57:00,
2013-02-01 09:02:00,27.0,10.4,29.81,East,82,0.0,6.0,49,0.00,,,0.00,76,HR-IXPWINDi_r2_v1.2.,2013-02-01 14:02:00,
2013-02-01 09:07:00,26.9,9.4,29.81,North,357,0.0,8.0,47,0.00,,,0.00,77,HR-IXPWINDi_r2_v1.2.,2013-02-01 14:07:00,
2013-02-01 09:13:00,26.9,9.4,29.81,North,356,1.0,8.0,47,0.00,,,0.00,88,HR-IXPWINDi_r2_v1.2.,2013-02-01 14:13:00,
2013-02-01 09:18:00,26.7,9.2,29.81,ESE,121,1.0,6.0,47,0.00,,,0.00,90,HR-IXPWINDi_r2_v1.2.,2013-02-01 14:18:00,
2013-02-01 09:23:00,26.9,9.4,29.82,East,90,5.0,5.0,47,0.00,,,0.00,104,HR-IXPWINDi_r2_v1.2.,2013-02-01 14:23:00,
2013-02-01 09:28:00,26.9,9.4,29.82,ENE,64,3.0,6.0,47,0.00,,,0.00,104,HR-IXPWINDi_r2_v1.2.,2013-02-01 14:28:00,
2013-02-01 09:33:00,27.2,10.1,29.82,NW,312,0.0,6.0,48,0.00,,,0.00,107,HR-IXPWINDi_r2_v1.2.,2013-02-01 14:33:00,
2013-02-01 09:38:00,27.3,11.2,29.82,NNW,346,2.0,7.0,50,0.00,,,0.00,102,HR-IXPWINDi_r2_v1.2.,2013-02-01 14:38:00,
2013-02-01 09:43:00,27.3,9.8,29.82,NNE,30,3.0,7.0,47,0.00,,,0.00,95,HR-IXPWINDi_r2_v1.2.,2013-02-01 14:43:00,
2013-02-01 09:49:00,27.3,9.3,29.82,East,89,1.0,7.0,46,0.00,,,0.00,109,HR-IXPWINDi_r2_v1.2.,2013-02-01 14:49:00,
2013-02-01 09:54:00,27.3,9.3,29.82,NNW,340,3.0,7.0,46,0.00,,,0.00,121,HR-IXPWINDi_r2_v1.2.,2013-02-01 14:54:00,
2013-02-01 09:59:00,27.3,9.3,29.82,ESE,110,2.0,6.0,46,0.00,,,0.00,127,HR-IXPWINDi_r2_v1.2.,2013-02-01 14:59:00,
2013-02-01 10:04:00,27.3,9.8,29.82,ESE,112,0.0,6.0,47,0.00,,,0.00,120,HR-IXPWINDi_r2_v1.2.,2013-02-01 15:04:00,
2013-02-01 10:09:00,27.5,9.5,29.83,SE,141,3.0,7.0,46,0.00,,,0.00,148,HR-IXPWINDi_r2_v1.2.,2013-02-01 15:09:00,
2013-02-01 10:15:00,27.6,9.6,29.83,NNE,28,0.0,7.0,46,0.00,,,0.00,158,HR-IXPWINDi_r2_v1.2.,2013-02-01 15:15:00,
2013-02-01 10:20:00,27.9,10.3,29.83,ESE,121,2.0,7.0,47,0.00,,,0.00,125,HR-IXPWINDi_r2_v1.2.,2013-02-01 15:20:00,
2013-02-01 10:25:00,28.4,13.0,29.83,East,79,1.0,10.0,52,0.00,,,0.00,130,HR-IXPWINDi_r2_v1.2.,2013-02-01 15:25:00,
2013-02-01 10:30:00,27.9,8.9,29.83,NNW,346,1.0,10.0,44,0.00,,,0.00,132,HR-IXPWINDi_r2_v1.2.,2013-02-01 15:30:00,
2013-02-01 10:35:00,28.2,10.1,29.83,NE,40,1.0,10.0,46,0.00,,,0.00,150,HR-IXPWINDi_r2_v1.2.,2013-02-01 15:35:00,
2013-02-01 10:40:00,28.4,9.8,29.83,SSE,157,1.0,6.0,45,0.00,,,0.00,116,HR-IXPWINDi_r2_v1.2.,2013-02-01 15:40:00,
2013-02-01 10:45:00,28.8,10.2,29.83,SSE,154,1.0,6.0,45,0.00,,,0.00,104,HR-IXPWINDi_r2_v1.2.,2013-02-01 15:45:00,
2013-02-01 10:50:00,29.0,9.3,29.83,NE,49,2.0,6.0,43,0.00,,,0.00,120,HR-IXPWINDi_r2_v1.2.,2013-02-01 15:50:00,
2013-02-01 10:55:00,28.5,7.8,29.83,SSE,158,5.0,6.0,41,0.00,,,0.00,150,HR-IXPWINDi_r2_v1.2.,2013-02-01 15:55:00,
2013-02-01 11:00:00,28.5,8.9,29.83,SW,223,5.0,7.0,43,0.00,,,0.00,158,HR-IXPWINDi_r2_v1.2.,2013-02-01 16:00:00,
2013-02-01 11:05:00,28.7,8.0,29.83,SSE,157,3.0,11.0,41,0.00,,,0.00,118,HR-IXPWINDi_r2_v1.2.,2013-02-01 16:05:00,
2013-02-01 11:11:00,28.7,7.5,29.83,ESE,112,0.0,11.0,40,0.00,,,0.00,132,HR-IXPWINDi_r2_v1.2.,2013-02-01 16:11:00,
2013-02-01 11:16:00,28.5,7.8,29.83,ESE,110,0.0,7.0,41,0.00,,,0.00,165,HR-IXPWINDi_r2_v1.2.,2013-02-01 16:16:00,
2013-02-01 11:21:00,28.7,7.5,29.82,NNW,343,2.0,7.0,40,0.00,,,0.00,155,HR-IXPWINDi_r2_v1.2.,2013-02-01 16:21:00,
2013-02-01 11:26:00,28.8,8.1,29.82,ESE,104,2.0,7.0,41,0.00,,,0.00,120,HR-IXPWINDi_r2_v1.2.,2013-02-01 16:26:00,
2013-02-01 11:31:00,28.4,7.2,29.82,NW,323,2.0,10.0,40,0.00,,,0.00,130,HR-IXPWINDi_r2_v1.2.,2013-02-01 16:31:00,
2013-02-01 11:36:00,28.2,6.5,29.82,East,85,0.0,10.0,39,0.00,,,0.00,158,HR-IXPWINDi_r2_v1.2.,2013-02-01 16:36:00,
2013-02-01 11:42:00,28.5,7.3,29.82,SE,140,7.0,10.0,40,0.00,,,0.00,280,HR-IXPWINDi_r2_v1.2.,2013-02-01 16:42:00,
2013-02-01 11:47:00,28.5,7.3,29.82,NE,41,3.0,10.0,40,0.00,,,0.00,157,HR-IXPWINDi_r2_v1.2.,2013-02-01 16:47:00,
2013-02-01 11:52:00,28.5,6.2,29.81,WSW,239,0.0,10.0,38,0.00,,,0.00,135,HR-IXPWINDi_r2_v1.2.,2013-02-01 16:52:00,
2013-02-01 11:57:00,28.5,6.2,29.81,ESE,103,4.0,10.0,38,0.00,,,0.00,160,HR-IXPWINDi_r2_v1.2.,2013-02-01 16:57:00,
2013-02-01 12:03:00,28.7,6.4,29.81,ESE,104,4.0,6.0,38,0.00,,,0.00,223,HR-IXPWINDi_r2_v1.2.,2013-02-01 17:03:00,
2013-02-01 12:08:00,28.7,6.4,29.81,East,79,2.0,6.0,38,0.00,,,0.00,132,HR-IXPWINDi_r2_v1.2.,2013-02-01 17:08:00,
2013-02-01 12:13:00,28.8,8.1,29.81,North,4,1.0,12.0,41,0.00,,,0.00,123,HR-IXPWINDi_r2_v1.2.,2013-02-01 17:13:00,
2013-02-01 12:18:00,28.8,8.6,29.81,SE,143,0.0,12.0,42,0.00,,,0.00,137,HR-IXPWINDi_r2_v1.2.,2013-02-01 17:18:00,
2013-02-01 12:23:00,28.4,6.7,29.81,East,79,11.0,11.0,39,0.00,,,0.00,179,HR-IXPWINDi_r2_v1.2.,2013-02-01 17:23:00,
2013-02-01 12:28:00,28.1,7.5,29.81,SE,127,7.0,11.0,41,0.00,,,0.00,165,HR-IXPWINDi_r2_v1.2.,2013-02-01 17:28:00,
2013-02-01 12:33:00,28.5,7.3,29.81,ESE,119,2.0,11.0,40,0.00,,,0.00,176,HR-IXPWINDi_r2_v1.2.,2013-02-01 17:33:00,
2013-02-01 12:38:00,28.7,6.4,29.81,ENE,62,1.0,7.0,38,0.00,,,0.00,176,HR-IXPWINDi_r2_v1.2.,2013-02-01 17:38:00,
2013-02-01 12:44:00,28.7,5.8,29.81,East,100,1.0,7.0,37,0.00,,,0.00,123,HR-IXPWINDi_r2_v1.2.,2013-02-01 17:44:00,
2013-02-01 12:49:00,28.5,5.0,29.81,NNW,346,1.0,12.0,36,0.00,,,0.00,113,HR-IXPWINDi_r2_v1.2.,2013-02-01 17:49:00,
2013-02-01 12:54:00,28.5,5.6,29.81,NNE,21,0.0,12.0,37,0.00,,,0.00,107,HR-IXPWINDi_r2_v1.2.,2013-02-01 17:54:00,
2013-02-01 12:59:00,28.5,4.4,29.81,NNE,24,3.0,10.0,35,0.00,,,0.00,109,HR-IXPWINDi_r2_v1.2.,2013-02-01 17:59:00,
2013-02-01 13:04:00,28.4,4.9,29.81,ENE,58,1.0,10.0,36,0.00,,,0.00,123,HR-IXPWINDi_r2_v1.2.,2013-02-01 18:04:00,
2013-02-01 13:09:00,28.5,5.6,29.82,North,0,3.0,7.0,37,0.00,,,0.00,111,HR-IXPWINDi_r2_v1.2.,2013-02-01 18:09:00,
2013-02-01 13:14:00,28.7,5.8,29.82,North,3,4.0,7.0,37,0.00,,,0.00,128,HR-IXPWINDi_r2_v1.2.,2013-02-01 18:14:00,
2013-02-01 13:19:00,28.8,4.7,29.82,East,79,1.0,11.0,35,0.00,,,0.00,125,HR-IXPWINDi_r2_v1.2.,2013-02-01 18:19:00,
2013-02-01 13:25:00,29.1,6.7,29.82,East,97,6.0,11.0,38,0.00,,,0.00,197,HR-IXPWINDi_r2_v1.2.,2013-02-01 18:25:00,
2013-02-01 13:30:00,29.5,6.5,29.82,ESE,102,2.0,8.0,37,0.00,,,0.00,482,HR-IXPWINDi_r2_v1.2.,2013-02-01 18:30:00,
2013-02-01 13:35:00,30.0,5.1,29.82,SE,128,6.0,11.0,34,0.00,,,0.00,431,HR-IXPWINDi_r2_v1.2.,2013-02-01 18:35:00,
2013-02-01 13:41:00,30.3,5.3,29.83,ESE,107,5.0,13.0,34,0.00,,,0.00,368,HR-IXPWINDi_r2_v1.2.,2013-02-01 18:41:00,
2013-02-01 13:46:00,30.3,6.0,29.83,SSE,148,1.0,13.0,35,0.00,,,0.00,366,HR-IXPWINDi_r2_v1.2.,2013-02-01 18:46:00,
2013-02-01 13:51:00,30.0,5.7,29.83,West,281,1.0,12.0,35,0.00,,,0.00,324,HR-IXPWINDi_r2_v1.2.,2013-02-01 18:51:00,
2013-02-01 13:56:00,30.4,4.8,29.83,NNW,337,2.0,8.0,33,0.00,,,0.00,398,HR-IXPWINDi_r2_v1.2.,2013-02-01 18:56:00,
2013-02-01 14:01:00,30.6,2.2,29.83,WNW,299,0.0,10.0,29,0.00,,,0.00,368,HR-IXPWINDi_r2_v1.2.,2013-02-01 19:01:00,
2013-02-01 14:07:00,30.4,2.0,29.84,East,82,0.0,10.0,29,0.00,,,0.00,153,HR-IXPWINDi_r2_v1.2.,2013-02-01 19:07:00,
2013-02-01 14:12:00,30.3,4.0,29.84,ENE,64,2.0,10.0,32,0.00,,,0.00,176,HR-IXPWINDi_r2_v1.2.,2013-02-01 19:12:00,
2013-02-01 14:17:00,29.8,4.3,29.84,South,179,4.0,8.0,33,0.00,,,0.00,151,HR-IXPWINDi_r2_v1.2.,2013-02-01 19:17:00,
2013-02-01 14:22:00,29.5,5.9,29.85,ENE,76,7.0,8.0,36,0.00,,,0.00,86,HR-IXPWINDi_r2_v1.2.,2013-02-01 19:22:00,
2013-02-01 14:28:00,29.3,8.0,29.85,ESE,123,0.0,10.0,40,0.00,,,0.00,30,HR-IXPWINDi_r2_v1.2.,2013-02-01 19:28:00,
2013-02-01 14:33:00,28.7,5.8,29.85,ENE,73,7.0,18.0,37,0.00,,,0.00,135,HR-IXPWINDi_r2_v1.2.,2013-02-01 19:33:00,
2013-02-01 14:38:00,29.1,6.1,29.86,SE,138,8.0,18.0,37,0.00,,,0.00,100,HR-IXPWINDi_r2_v1.2.,2013-02-01 19:38:00,
2013-02-01 14:43:00,29.1,3.6,29.86,SSE,152,0.0,8.0,33,0.00,,,0.00,109,HR-IXPWINDi_r2_v1.2.,2013-02-01 19:43:00,
2013-02-01 14:48:00,29.1,3.6,29.86,NNW,337,1.0,8.0,33,0.00,,,0.00,88,HR-IXPWINDi_r2_v1.2.,2013-02-01 19:48:00,
2013-02-01 14:53:00,29.0,2.2,29.86,ESE,114,2.0,13.0,31,0.00,,,0.00,91,HR-IXPWINDi_r2_v1.2.,2013-02-01 19:53:00,
2013-02-01 14:58:00,29.0,3.6,29.86,ESE,102,5.0,13.0,33,0.00,,,0.00,72,HR-IXPWINDi_r2_v1.2.,2013-02-01 19:58:00,
2013-02-01 15:03:00,28.8,4.7,29.86,North,349,1.0,10.0,35,0.00,,,0.00,55,HR-IXPWINDi_r2_v1.2.,2013-02-01 20:03:00,
2013-02-01 15:08:00,28.7,7.5,29.88,ENE,66,2.0,10.0,40,0.00,,,0.00,48,HR-IXPWINDi_r2_v1.2.,2013-02-01 20:08:00,
2013-02-01 15:14:00,28.7,3.9,29.88,NE,51,3.0,8.0,34,0.00,,,0.00,91,HR-IXPWINDi_r2_v1.2.,2013-02-01 20:14:00,
2013-02-01 15:19:00,28.8,4.7,29.88,SSW,193,0.0,8.0,35,0.00,,,0.00,51,HR-IXPWINDi_r2_v1.2.,2013-02-01 20:19:00,
2013-02-01 15:24:00,29.3,5.1,29.88,SE,140,2.0,6.0,35,0.00,,,0.00,67,HR-IXPWINDi_r2_v1.2.,2013-02-01 20:24:00,
2013-02-01 15:29:00,29.3,6.3,29.88,NNW,337,0.0,12.0,37,0.00,,,0.00,77,HR-IXPWINDi_r2_v1.2.,2013-02-01 20:29:00,
2013-02-01 15:34:00,29.1,5.5,29.88,North,6,2.0,12.0,36,0.00,,,0.00,53,HR-IXPWINDi_r2_v1.2.,2013-02-01 20:34:00,
2013-02-01 15:39:00,29.0,6.0,29.90,SE,136,2.0,6.0,37,0.00,,,0.00,53,HR-IXPWINDi_r2_v1.2.,2013-02-01 20:39:00,
2013-02-01 15:44:00,29.0,6.0,29.90,East,88,3.0,6.0,37,0.00,,,0.00,49,HR-IXPWINDi_r2_v1.2.,2013-02-01 20:44:00,
2013-02-01 15:49:00,28.5,6.2,29.90,SE,128,2.0,7.0,38,0.00,,,0.00,42,HR-IXPWINDi_r2_v1.2.,2013-02-01 20:49:00,
2013-02-01 15:54:00,28.2,5.9,29.91,South,182,2.0,7.0,38,0.00,,,0.00,32,HR-IXPWINDi_r2_v1.2.,2013-02-01 20:54:00,
2013-02-01 15:59:00,27.9,3.9,29.91,East,96,0.0,7.0,35,0.00,,,0.00,16,HR-IXPWINDi_r2_v1.2.,2013-02-01 20:59:00,
2013-02-01 16:05:00,27.8,3.8,29.91,East,93,0.0,6.0,35,0.00,,,0.00,16,HR-IXPWINDi_r2_v1.2.,2013-02-01 21:05:00,
2013-02-01 16:10:00,27.9,4.5,29.93,SE,136,2.0,11.0,36,0.00,,,0.00,44,HR-IXPWINDi_r2_v1.2.,2013-02-01 21:10:00,
2013-02-01 16:15:00,27.8,5.0,29.93,East,100,0.0,11.0,37,0.00,,,0.00,14,HR-IXPWINDi_r2_v1.2.,2013-02-01 21:15:00,
2013-02-01 16:20:00,27.8,5.0,29.93,NE,41,1.0,6.0,37,0.00,,,0.00,9,HR-IXPWINDi_r2_v1.2.,2013-02-01 21:20:00,
2013-02-01 16:25:00,27.5,3.5,29.93,East,80,6.0,8.0,35,0.00,,,0.00,5,HR-IXPWINDi_r2_v1.2.,2013-02-01 21:25:00,
2013-02-01 16:31:00,27.3,3.9,29.93,ESE,109,3.0,8.0,36,0.00,,,0.00,5,HR-IXPWINDi_r2_v1.2.,2013-02-01 21:31:00,
2013-02-01 16:36:00,27.0,1.8,29.94,North,350,0.0,7.0,33,0.00,,,0.00,5,HR-IXPWINDi_r2_v1.2.,2013-02-01 21:36:00,
2013-02-01 16:41:00,27.3,2.7,29.94,NE,35,5.0,7.0,34,0.00,,,0.00,0,HR-IXPWINDi_r2_v1.2.,2013-02-01 21:41:00,
2013-02-01 16:47:00,27.0,1.1,29.94,NNE,24,2.0,9.0,32,0.00,,,0.00,5,HR-IXPWINDi_r2_v1.2.,2013-02-01 21:47:00,
2013-02-01 16:52:00,26.9,2.3,29.96,ESE,113,7.0,9.0,34,0.00,,,0.00,0,HR-IXPWINDi_r2_v1.2.,2013-02-01 21:52:00,
2013-02-01 16:57:00,26.7,1.5,29.96,ESE,109,2.0,10.0,33,0.00,,,0.00,0,HR-IXPWINDi_r2_v1.2.,2013-02-01 21:57:00,
2013-02-01 17:02:00,26.7,4.0,29.96,East,85,0.0,5.0,37,0.00,,,0.00,0,HR-IXPWINDi_r2_v1.2.,2013-02-01 22:02:00,
2013-02-01 17:07:00,26.6,3.3,29.97,East,82,0.0,5.0,36,0.00,,,0.00,0,HR-IXPWINDi_r2_v1.2.,2013-02-01 22:07:00,
2013-02-01 17:13:00,26.4,4.3,29.97,NE,42,2.0,5.0,38,0.00,,,0.00,0,HR-IXPWINDi_r2_v1.2.,2013-02-01 22:13:00,
2013-02-01 17:18:00,26.3,4.8,29.97,East,80,2.0,5.0,39,0.00,,,0.00,0,HR-IXPWINDi_r2_v1.2.,2013-02-01 22:18:00,
2013-02-01 17:23:00,26.1,5.7,29.98,NW,326,0.0,8.0,41,0.00,,,0.00,0,HR-IXPWINDi_r2_v1.2.,2013-02-01 22:23:00,
2013-02-01 17:28:00,26.0,4.5,29.98,East,86,3.0,8.0,39,0.00,,,0.00,0,HR-IXPWINDi_r2_v1.2.,2013-02-01 22:28:00,
2013-02-01 17:33:00,26.0,5.0,29.98,East,95,1.0,6.0,40,0.00,,,0.00,0,HR-IXPWINDi_r2_v1.2.,2013-02-01 22:33:00,
2013-02-01 17:39:00,25.8,5.4,29.99,ESE,107,1.0,5.0,41,0.00,,,0.00,0,HR-IXPWINDi_r2_v1.2.,2013-02-01 22:39:00,
2013-02-01 17:44:00,25.8,4.3,29.99,ESE,107,0.0,5.0,39,0.00,,,0.00,0,HR-IXPWINDi_r2_v1.2.,2013-02-01 22:44:00,
2013-02-01 17:49:00,25.7,4.2,29.99,NE,44,1.0,3.0,39,0.00,,,0.00,0,HR-IXPWINDi_r2_v1.2.,2013-02-01 22:49:00,
2013-02-01 17:54:00,25.6,3.6,30.00,ENE,61,0.0,6.0,38,0.00,,,0.00,0,HR-IXPWINDi_r2_v1.2.,2013-02-01 22:54:00,
2013-02-01 18:00:00,25.8,3.2,30.00,NE,48,0.0,6.0,37,0.00,,,0.00,0,HR-IXPWINDi_r2_v1.2.,2013-02-01 23:00:00,
2013-02-01 18:05:00,25.7,3.1,30.00,NNW,342,3.0,7.0,37,0.00,,,0.00,0,HR-IXPWINDi_r2_v1.2.,2013-02-01 23:05:00,
2013-02-01 18:10:00,25.6,1.2,30.01,SSE,158,1.0,8.0,34,0.00,,,0.00,0,HR-IXPWINDi_r2_v1.2.,2013-02-01 23:10:00,
2013-02-01 18:15:00,25.6,3.0,30.01,SE,137,1.0,8.0,37,0.00,,,0.00,0,HR-IXPWINDi_r2_v1.2.,2013-02-01 23:15:00,
2013-02-01 18:20:00,25.4,2.2,30.01,NNW,333,1.0,9.0,36,0.00,,,0.00,0,HR-IXPWINDi_r2_v1.2.,2013-02-01 23:20:00,
2013-02-01 18:26:00,25.3,2.1,30.03,East,92,0.0,9.0,36,0.00,,,0.00,0,HR-IXPWINDi_r2_v1.2.,2013-02-01 23:26:00,
2013-02-01 18:31:00,25.3,1.5,30.03,SE,145,0.0,6.0,35,0.00,,,0.00,0,HR-IXPWINDi_r2_v1.2.,2013-02-01 23:31:00,
2013-02-01 18:36:00,25.1,2.6,30.04,North,8,0.0,6.0,37,0.00,,,0.00,0,HR-IXPWINDi_r2_v1.2.,2013-02-01 23:36:00,
2013-02-01 18:41:00,25.0,3.0,30.04,ENE,69,1.0,5.0,38,0.00,,,0.00,0,HR-IXPWINDi_r2_v1.2.,2013-02-01 23:41:00,
2013-02-01 18:47:00,25.1,3.1,30.04,ESE,102,3.0,5.0,38,0.00,,,0.00,0,HR-IXPWINDi_r2_v1.2.,2013-02-01 23:47:00,
2013-02-01 18:52:00,24.8,2.3,30.05,ESE,119,1.0,5.0,37,0.00,,,0.00,0,HR-IXPWINDi_r2_v1.2.,2013-02-01 23:52:00,
2013-02-01 18:57:00,24.7,2.8,30.05,NNE,23,2.0,6.0,38,0.00,,,0.00,0,HR-IXPWINDi_r2_v1.2.,2013-02-01 23:57:00,
2013-02-01 19:02:00,24.7,4.9,30.05,East,79,1.0,6.0,42,0.00,,,0.00,0,HR-IXPWINDi_r2_v1.2.,2013-02-02 00:02:00,
2013-02-01 19:07:00,24.5,4.2,30.06,SE,133,2.0,3.0,41,0.00,,,0.00,0,HR-IXPWINDi_r2_v1.2.,2013-02-02 00:07:00,
2013-02-01 19:13:00,24.4,4.1,30.06,ENE,58,0.0,3.0,41,0.00,,,0.00,0,HR-IXPWINDi_r2_v1.2.,2013-02-02 00:13:00,
2013-02-01 19:18:00,24.4,4.7,30.06,SSE,157,1.0,3.0,42,0.00,,,0.00,0,HR-IXPWINDi_r2_v1.2.,2013-02-02 00:18:00,
2013-02-01 19:23:00,24.5,4.2,30.07,ESE,106,1.0,6.0,41,0.00,,,0.00,0,HR-IXPWINDi_r2_v1.2.,2013-02-02 00:23:00,
2013-02-01 19:28:00,24.4,4.1,30.07,North,0,0.0,7.0,41,0.00,,,0.00,0,HR-IXPWINDi_r2_v1.2.,2013-02-02 00:28:00,
2013-02-01 19:34:00,24.4,4.1,30.07,East,95,1.0,7.0,41,0.00,,,0.00,0,HR-IXPWINDi_r2_v1.2.,2013-02-02 00:34:00,
2013-02-01 19:39:00,24.2,4.5,30.07,WNW,287,2.0,8.0,42,0.00,,,0.00,0,HR-IXPWINDi_r2_v1.2.,2013-02-02 00:39:00,
2013-02-01 19:44:00,24.1,4.4,30.07,ESE,102,2.0,8.0,42,0.00,,,0.00,0,HR-IXPWINDi_r2_v1.2.,2013-02-02 00:44:00,
2013-02-01 19:49:00,24.2,4.5,30.07,North,3,0.0,8.0,42,0.00,,,0.00,0,HR-IXPWINDi_r2_v1.2.,2013-02-02 00:49:00,
2013-02-01 19:55:00,24.4,6.6,30.08,SSW,196,0.0,8.0,46,0.00,,,0.00,0,HR-IXPWINDi_r2_v1.2.,2013-02-02 00:55:00,
2013-02-01 20:00:00,24.5,4.2,30.08,SE,140,0.0,6.0,41,0.00,,,0.00,0,HR-IXPWINDi_r2_v1.2.,2013-02-02 01:00:00,
2013-02-01 20:05:00,24.2,4.5,30.08,ESE,119,0.0,6.0,42,0.00,,,0.00,0,HR-IXPWINDi_r2_v1.2.,2013-02-02 01:05:00,
2013-02-01 20:10:00,24.1,4.9,30.09,South,178,0.0,6.0,43,0.00,,,0.00,0,HR-IXPWINDi_r2_v1.2.,2013-02-02 01:10:00,
2013-02-01 20:15:00,24.1,4.9,30.09,SSE,152,1.0,6.0,43,0.00,,,0.00,0,HR-IXPWINDi_r2_v1.2.,2013-02-02 01:15:00,
2013-02-01 20:21:00,23.9,4.7,30.09,ENE,61,1.0,6.0,43,0.00,,,0.00,0,HR-IXPWINDi_r2_v1.2.,2013-02-02 01:21:00,
2013-02-01 20:26:00,23.8,5.6,30.10,ENE,75,0.0,4.0,45,0.00,,,0.00,0,HR-IXPWINDi_r2_v1.2.,2013-02-02 01:26:00,
2013-02-01 20:31:00,23.8,5.6,30.10,ESE,104,4.0,6.0,45,0.00,,,0.00,0,HR-IXPWINDi_r2_v1.2.,2013-02-02 01:31:00,
2013-02-01 20:36:00,23.6,5.4,30.10,WSW,248,1.0,6.0,45,0.00,,,0.00,0,HR-IXPWINDi_r2_v1.2.,2013-02-02 01:36:00,
2013-02-01 20:41:00,23.6,5.9,30.10,ESE,109,1.0,6.0,46,0.00,,,0.00,0,HR-IXPWINDi_r2_v1.2.,2013-02-02 01:41:00,
2013-02-01 20:46:00,23.5,6.3,30.10,NW,306,0.0,3.0,47,0.00,,,0.00,0,HR-IXPWINDi_r2_v1.2.,2013-02-02 01:46:00,
2013-02-01 20:52:00,23.3,6.6,30.11,NW,318,0.0,3.0,48,0.00,,,0.00,0,HR-IXPWINDi_r2_v1.2.,2013-02-02 01:52:00,
2013-02-01 20:57:00,23.2,6.5,30.11,NW,318,1.0,3.0,48,0.00,,,0.00,0,HR-IXPWINDi_r2_v1.2.,2013-02-02 01:57:00,
2013-02-01 21:02:00,23.0,6.7,30.11,NW,318,0.0,1.0,49,0.00,,,0.00,0,HR-IXPWINDi_r2_v1.2.,2013-02-02 02:02:00,
2013-02-01 21:07:00,23.0,6.7,30.12,NW,315,1.0,2.0,49,0.00,,,0.00,0,HR-IXPWINDi_r2_v1.2.,2013-02-02 02:07:00,
2013-02-01 21:13:00,23.0,6.7,30.12,NW,320,2.0,2.0,49,0.00,,,0.00,0,HR-IXPWINDi_r2_v1.2.,2013-02-02 02:13:00,
2013-02-01 21:18:00,23.0,6.3,30.12,East,88,0.0,3.0,48,0.00,,,0.00,0,HR-IXPWINDi_r2_v1.2.,2013-02-02 02:18:00,
2013-02-01 21:23:00,23.0,7.2,30.12,East,88,0.0,3.0,50,0.00,,,0.00,0,HR-IXPWINDi_r2_v1.2.,2013-02-02 02:23:00,
2013-02-01 21:28:00,23.0,6.7,30.12,East,88,0.0,2.0,49,0.00,,,0.00,0,HR-IXPWINDi_r2_v1.2.,2013-02-02 02:28:00,
2013-02-01 21:33:00,22.9,6.7,30.12,East,88,0.0,2.0,49,0.00,,,0.00,0,HR-IXPWINDi_r2_v1.2.,2013-02-02 02:33:00,
2013-02-01 21:38:00,22.9,6.7,30.12,East,88,1.0,3.0,49,0.00,,,0.00,0,HR-IXPWINDi_r2_v1.2.,2013-02-02 02:38:00,
2013-02-01 21:44:00,23.0,8.9,30.12,SE,124,0.0,3.0,54,0.00,,,0.00,0,HR-IXPWINDi_r2_v1.2.,2013-02-02 02:44:00,
2013-02-01 21:49:00,22.9,8.0,30.12,SE,124,0.0,2.0,52,0.00,,,0.00,0,HR-IXPWINDi_r2_v1.2.,2013-02-02 02:49:00,
2013-02-01 21:54:00,22.9,8.0,30.13,SE,124,0.0,2.0,52,0.00,,,0.00,0,HR-IXPWINDi_r2_v1.2.,2013-02-02 02:54:00,
2013-02-01 21:59:00,22.9,8.0,30.13,SE,124,1.0,2.0,52,0.00,,,0.00,0,HR-IXPWINDi_r2_v1.2.,2013-02-02 02:59:00,
2013-02-01 22:04:00,22.9,7.5,30.13,SE,124,0.0,3.0,51,0.00,,,0.00,0,HR-IXPWINDi_r2_v1.2.,2013-02-02 03:04:00,
2013-02-01 22:09:00,22.7,7.8,30.13,SE,124,0.0,3.0,52,0.00,,,0.00,0,HR-IXPWINDi_r2_v1.2.,2013-02-02 03:09:00,
2013-02-01 22:15:00,22.7,8.2,30.13,East,96,0.0,2.0,53,0.00,,,0.00,0,HR-IXPWINDi_r2_v1.2.,2013-02-02 03:15:00,
2013-02-01 22:20:00,22.7,8.2,30.13,East,96,0.0,2.0,53,0.00,,,0.00,0,HR-IXPWINDi_r2_v1.2.,2013-02-02 03:20:00,
2013-02-01 22:25:00,22.5,8.4,30.14,ESE,103,0.0,5.0,54,0.00,,,0.00,0,HR-IXPWINDi_r2_v1.2.,2013-02-02 03:25:00,
2013-02-01 22:30:00,23.0,9.3,30.14,South,174,0.0,10.0,55,0.00,,,0.00,0,HR-IXPWINDi_r2_v1.2.,2013-02-02 03:30:00,
2013-02-01 22:35:00,23.2,9.9,30.14,SE,140,3.0,10.0,56,0.00,,,0.00,0,HR-IXPWINDi_r2_v1.2.,2013-02-02 03:35:00,
2013-02-01 22:41:00,22.7,9.4,30.15,SE,138,0.0,3.0,56,0.00,,,0.00,0,HR-IXPWINDi_r2_v1.2.,2013-02-02 03:41:00,
2013-02-01 22:46:00,22.5,9.6,30.15,SE,138,1.0,3.0,57,0.00,,,0.00,0,HR-IXPWINDi_r2_v1.2.,2013-02-02 03:46:00,
2013-02-01 22:51:00,22.5,9.6,30.15,North,6,0.0,5.0,57,0.00,,,0.00,0,HR-IXPWINDi_r2_v1.2.,2013-02-02 03:51:00,
2013-02-01 22:56:00,22.4,9.9,30.15,ENE,75,0.0,5.0,58,0.00,,,0.00,0,HR-IXPWINDi_r2_v1.2.,2013-02-02 03:56:00,
2013-02-01 23:01:00,22.7,10.6,30.15,ESE,114,6.0,6.0,59,0.00,,,0.00,0,HR-IXPWINDi_r2_v1.2.,2013-02-02 04:01:00,
2013-02-01 23:07:00,22.5,10.0,30.16,SE,126,2.0,7.0,58,0.00,,,0.00,0,HR-IXPWINDi_r2_v1.2.,2013-02-02 04:07:00,
2013-02-01 23:12:00,22.4,9.9,30.16,NE,56,0.0,7.0,58,0.00,,,0.00,0,HR-IXPWINDi_r2_v1.2.,2013-02-02 04:12:00,
2013-02-01 23:17:00,22.2,10.1,30.16,ESE,123,0.0,6.0,59,0.00,,,0.00,0,HR-IXPWINDi_r2_v1.2.,2013-02-02 04:17:00,
2013-02-01 23:22:00,22.2,10.8,30.16,ESE,121,0.0,5.0,61,0.00,,,0.00,0,HR-IXPWINDi_r2_v1.2.,2013-02-02 04:22:00,
2013-02-01 23:27:00,22.2,10.8,30.16,ESE,120,0.0,5.0,61,0.00,,,0.00,0,HR-IXPWINDi_r2_v1.2.,2013-02-02 04:27:00,
2013-02-01 23:32:00,22.1,10.7,30.16,ESE,120,0.0,3.0,61,0.00,,,0.00,0,HR-IXPWINDi_r2_v1.2.,2013-02-02 04:32:00,
2013-02-01 23:37:00,22.1,10.7,30.16,SE,124,1.0,5.0,61,0.00,,,0.00,0,HR-IXPWINDi_r2_v1.2.,2013-02-02 04:37:00,
2013-02-01 23:43:00,22.1,11.8,30.16,SE,124,0.0,5.0,64,0.00,,,0.00,0,HR-IXPWINDi_r2_v1.2.,2013-02-02 04:43:00,
2013-02-01 23:48:00,22.1,11.1,30.16,SE,124,1.0,3.0,62,0.00,,,0.00,0,HR-IXPWINDi_r2_v1.2.,2013-02-02 04:48:00,
2013-02-01 23:53:00,21.9,10.9,30.17,SE,124,0.0,7.0,62,0.00,,,0.00,0,HR-IXPWINDi_r2_v1.2.,2013-02-02 04:53:00,
2013-02-01 23:58:00,21.8,10.8,30.17,SE,124,1.0,7.0,62,0.00,,,0.00,0,HR-IXPWINDi_r2_v1.2.,2013-02-02 04:58:00,